GW0515 Weather Reports


time (UTC)temp
C
wind
direction
speed
KPH
gust
KPH
rain 1hr
cm
rain 24hr
cm
rain mn
cm
humidity
%
barometer
mb
20260507192907 8 355 4.8 6.4 0.00 0.00 0.00 82 1018.1
20260507192409 9 355 3.2 6.4 0.00 0.00 0.00 82 1018.1
20260507191908 9 355 3.2 4.8 0.00 0.00 0.00 81 1018.1
20260507191407 9 355 3.2 4.8 0.00 0.00 0.00 81 1018.0
20260507191149 9 355 3.2 4.8 0.00 0.00 0.00 80 1018.0
20260507190406 9 355 3.2 4.8 0.00 0.00 0.00 80 1018.0
20260507190201 10 355 3.2 4.8 0.00 0.00 0.00 80 1017.7
20260507185406 10 355 4.8 8.0 0.00 0.00 0.00 79 1017.7
20260507184906 10 355 4.8 8.0 0.00 0.00 0.00 79 1017.7
20260507184648 10 355 4.8 8.0 0.00 0.00 0.00 79 1017.6
20260507183905 10 328 3.2 6.4 0.00 0.00 0.00 78 1017.6
20260507183403 10 328 4.8 6.4 0.00 0.00 0.00 78 1017.6
20260507182904 11 328 3.2 6.4 0.00 0.00 0.00 78 1017.6
20260507182422 11 328 3.2 8.0 0.00 0.00 0.00 78 1017.6
20260507181402 11 333 4.8 9.7 0.00 0.00 0.00 77 1017.5
20260507180900 11 321 4.8 9.7 0.00 0.00 0.00 77 1017.5
20260507180400 11 325 4.8 9.7 0.00 0.00 0.00 77 1017.5
20260507180205 11 329 4.8 9.7 0.00 0.00 0.00 77 1017.3
20260507175401 11 317 6.4 9.7 0.00 0.00 0.00 76 1017.3
20260507174856 11 309 4.8 9.7 0.00 0.00 0.00 76 1017.3
20260507174355 11 317 6.4 11.3 0.00 0.00 0.00 75 1017.3
20260507173854 11 321 6.4 14.5 0.00 0.00 0.00 75 1017.3
20260507173354 11 318 6.4 14.5 0.00 0.00 0.00 75 1017.3
20260507172852 11 323 8.0 12.9 0.00 0.00 0.00 74 1017.3
20260507172630 12 317 8.0 14.5 0.00 0.00 0.00 73 1017.3
20260507171847 12 325 8.0 14.5 0.00 0.00 0.00 73 1017.3
20260507171345 12 290 9.7 19.3 0.00 0.00 0.00 73 1017.1
20260507170831 12 312 11.3 19.3 0.00 0.00 0.00 73 1017.1
20260507170329 12 295 11.3 19.3 0.00 0.00 0.00 74 1017.1
20260507165830 12 321 11.3 20.9 0.00 0.00 0.00 73 1017.1
20260507165332 12 300 12.9 20.9 0.00 0.00 0.00 73 1017.1
20260507164829 12 261 11.3 17.7 0.00 0.00 0.00 71 1017.1
20260507164329 13 294 9.7 17.7 0.00 0.00 0.00 69 1017.1
20260507164116 13 302 9.7 16.1 0.00 0.00 0.00 69 1017.1
20260507163330 13 292 9.7 16.1 0.00 0.00 0.00 68 1017.1
20260507162829 13 308 9.7 14.5 0.00 0.00 0.00 68 1017.1
20260507162330 13 302 9.7 16.1 0.00 0.00 0.00 67 1017.1
20260507161829 13 292 9.7 16.1 0.00 0.00 0.00 66 1017.1
20260507161607 13 294 9.7 16.1 0.00 0.00 0.00 64 1017.1
20260507160829 14 309 9.7 16.1 0.00 0.00 0.00 61 1017.1
20260507160344 15 302 9.7 16.1 0.00 0.00 0.00 61 1017.1
20260507155331 15 319 9.7 17.7 0.00 0.00 0.00 61 1017.0
20260507154829 15 284 11.3 17.7 0.00 0.00 0.00 61 1017.0
20260507154329 15 316 11.3 17.7 0.00 0.00 0.00 61 1017.0
20260507154117 15 286 9.7 19.3 0.00 0.00 0.00 61 1017.0
20260507153330 14 308 9.7 19.3 0.00 0.00 0.00 62 1017.0
20260507152830 14 325 11.3 19.3 0.00 0.00 0.00 63 1016.9
20260507152329 13 319 11.3 19.3 0.00 0.00 0.00 63 1016.9
20260507151830 13 286 9.7 17.7 0.00 0.00 0.00 62 1016.9
20260507151329 13 308 11.3 17.7 0.00 0.00 0.00 65 1017.0
20260507150829 12 286 11.3 16.1 0.00 0.00 0.00 65 1017.0
20260507150329 12 287 11.3 16.1 0.00 0.00 0.00 65 1017.0
20260507145821 12 293 9.7 16.1 0.00 0.00 0.00 67 1016.9
20260507145314 12 283 9.7 17.7 0.00 0.00 0.00 67 1016.9
20260507144814 12 292 9.7 16.1 0.00 0.00 0.00 68 1016.9
20260507144314 12 298 11.3 19.3 0.00 0.00 0.00 67 1016.8
20260507143814 12 299 9.7 19.3 0.00 0.00 0.00 68 1016.8
20260507143314 12 275 9.7 17.7 0.00 0.00 0.00 69 1016.8
20260507142815 12 284 11.3 17.7 0.00 0.00 0.00 69 1016.7
20260507142315 12 287 11.3 17.7 0.00 0.00 0.00 68 1016.7
20260507141814 12 283 11.3 17.7 0.00 0.00 0.00 67 1016.7
20260507141315 12 280 11.3 16.1 0.00 0.00 0.00 68 1016.7
20260507140811 12 301 9.7 16.1 0.00 0.00 0.00 67 1016.7
20260507140548 12 275 9.7 16.1 0.00 0.00 0.00 67 1016.7
20260507135811 12 321 11.3 19.3 0.00 0.00 0.00 67 1016.7
20260507135311 12 326 11.3 19.3 0.00 0.00 0.00 67 1016.7
20260507135117 12 292 11.3 19.3 0.00 0.00 0.00 66 1016.7
20260507134308 12 282 11.3 17.7 0.00 0.00 0.00 66 1016.6
20260507133808 13 302 9.7 16.1 0.00 0.00 0.00 66 1016.6
20260507133308 13 293 9.7 17.7 0.00 0.00 0.00 66 1016.6
20260507132803 13 305 9.7 17.7 0.00 0.00 0.00 67 1016.6
20260507132306 13 304 11.3 20.9 0.00 0.00 0.00 67 1016.6
20260507131802 13 283 11.3 20.9 0.00 0.00 0.00 66 1016.6
20260507131303 13 334 9.7 17.7 0.00 0.00 0.00 68 1016.6
20260507130802 13 333 8.0 17.7 0.00 0.00 0.00 69 1016.6
20260507130302 13 300 9.7 16.1 0.00 0.00 0.00 67 1016.6
20260507125802 13 324 9.7 16.1 0.00 0.00 0.00 70 1016.5
20260507125306 13 281 9.7 19.3 0.00 0.00 0.00 65 1016.5
20260507124802 13 313 11.3 19.3 0.00 0.00 0.00 63 1016.5
20260507124314 13 315 12.9 19.3 0.00 0.00 0.00 61 1016.2
20260507123809 13 309 12.9 19.3 0.00 0.00 0.00 62 1016.2
20260507123309 13 285 11.3 19.3 0.00 0.00 0.00 59 1016.2
20260507122801 14 249 12.9 22.5 0.00 0.00 0.00 57 1016.1
20260507122306 14 294 12.9 22.5 0.00 0.00 0.00 58 1016.1
20260507121801 14 292 12.9 20.9 0.00 0.00 0.00 55 1016.1
20260507121301 14 274 14.5 20.9 0.00 0.00 0.00 58 1016.2
20260507121035 14 277 14.5 20.9 0.00 0.00 0.00 61 1016.2
20260507120303 14 304 12.9 20.9 0.00 0.00 0.00 63 1016.2
20260507115801 14 311 12.9 19.3 0.00 0.00 0.00 63 1016.1
20260507115301 14 274 12.9 19.3 0.00 0.00 0.00 64 1016.1
20260507114803 14 294 11.3 17.7 0.00 0.00 0.00 64 1016.1
20260507114303 13 269 11.3 16.1 0.00 0.00 0.00 66 1016.1
20260507113804 13 254 11.3 16.1 0.00 0.00 0.00 64 1016.1
20260507113301 13 251 9.7 16.1 0.00 0.00 0.00 65 1016.1
20260507112800 13 279 9.7 16.1 0.00 0.00 0.00 64 1016.1
20260507112300 14 251 9.7 14.5 0.00 0.00 0.00 66 1016.1
20260507112035 13 259 9.7 14.5 0.00 0.00 0.00 66 1016.1
20260507111257 14 265 11.3 16.1 0.00 0.00 0.00 67 1016.2
20260507110758 13 258 11.3 17.7 0.00 0.00 0.00 69 1016.2
20260507110523 13 246 9.7 17.7 0.00 0.00 0.00 68 1016.2
20260507105759 13 254 11.3 19.3 0.00 0.00 0.00 66 1016.1
20260507105257 13 271 11.3 19.3 0.00 0.00 0.00 66 1016.1
20260507104758 13 289 9.7 17.7 0.00 0.00 0.00 68 1016.1
20260507104257 14 282 9.7 16.1 0.00 0.00 0.00 65 1016.1
20260507103758 13 272 9.7 16.1 0.00 0.00 0.00 65 1016.1
20260507103256 13 263 9.7 16.1 0.00 0.00 0.00 62 1016.1
20260507102752 13 267 9.7 16.1 0.00 0.00 0.00 64 1016.1
20260507101749 13 277 8.0 16.1 0.00 0.00 0.00 62 1016.1
20260507101251 14 270 4.8 16.1 0.00 0.00 0.00 66 1016.1
20260507100748 14 275 3.2 9.7 0.00 0.00 0.00 53 1016.1
20260507100247 14 189 4.8 12.9 0.00 0.00 0.00 55 1016.1
20260507095748 14 189 4.8 12.9 0.00 0.00 0.00 58 1016.1
20260507095514 13 252 6.4 14.5 0.00 0.00 0.00 60 1016.1
20260507094745 13 252 4.8 14.5 0.00 0.00 0.00 57 1016.1
20260507094246 14 159 1.6 6.4 0.00 0.00 0.00 57 1016.0
20260507094016 13 159 4.8 9.7 0.00 0.00 0.00 62 1016.0
20260507093246 13 159 4.8 9.7 0.00 0.00 0.00 61 1016.0
20260507092744 13 157 4.8 8.0 0.00 0.00 0.00 61 1016.0
20260507092244 13 149 3.2 8.0 0.00 0.00 0.00 61 1016.0
20260507091743 13 132 3.2 6.4 0.00 0.00 0.00 62 1016.0
20260507091243 13 130 3.2 6.4 0.00 0.00 0.00 63 1016.0
20260507090743 13 130 3.2 8.0 0.00 0.00 0.00 61 1016.0
20260507090244 12 130 3.2 8.0 0.00 0.00 0.00 64 1016.0
20260507085743 12 130 3.2 8.0 0.00 0.00 0.00 64 1015.9
20260507085244 12 130 4.8 9.7 0.00 0.00 0.00 65 1015.9
20260507084744 12 134 4.8 11.3 0.00 0.00 0.00 62 1015.9
20260507084243 12 117 4.8 11.3 0.00 0.00 0.00 64 1015.7
20260507083743 12 157 4.8 12.9 0.00 0.00 0.00 64 1015.7
20260507083244 12 164 4.8 12.9 0.00 0.00 0.00 63 1015.7
20260507082746 12 167 3.2 11.3 0.00 0.00 0.00 65 1015.6
20260507082244 12 119 4.8 11.3 0.00 0.00 0.00 63 1015.6
20260507081742 12 119 4.8 11.3 0.00 0.00 0.00 66 1015.6
20260507081243 12 118 4.8 11.3 0.00 0.00 0.00 64 1015.6
20260507080744 12 108 4.8 11.3 0.00 0.00 0.00 66 1015.6
20260507080237 12 118 4.8 8.0 0.00 0.00 0.00 66 1015.6
20260507075733 12 111 4.8 11.3 0.00 0.00 0.00 70 1015.5
20260507075233 12 150 4.8 11.3 0.00 0.00 0.00 68 1015.5
20260507075001 11 107 4.8 11.3 0.00 0.00 0.00 70 1015.5
20260507074232 11 146 6.4 12.9 0.00 0.00 0.00 71 1015.3
20260507073731 11 125 4.8 12.9 0.00 0.00 0.00 69 1015.3
20260507073230 11 128 4.8 11.3 0.00 0.00 0.00 74 1015.3
20260507072731 11 116 6.4 11.3 0.00 0.00 0.00 76 1015.3
20260507072231 11 94 8.0 14.5 0.00 0.00 0.00 76 1015.3
20260507071730 11 132 6.4 14.5 0.00 0.00 0.00 76 1015.3
20260507071230 10 68 6.4 12.9 0.00 0.00 0.00 77 1015.2
20260507070730 10 113 6.4 12.9 0.00 0.00 0.00 77 1015.2
20260507070500 10 93 4.8 11.3 0.00 0.00 0.00 79 1015.2
20260507065730 10 53 4.8 8.0 0.00 0.00 0.00 80 1015.1
20260507065059 10 53 3.2 8.0 0.00 0.00 0.00 82 1015.1
20260507063945 9 53 4.8 8.0 0.00 0.00 0.00 83 1015.1
20260507063221 9 53 4.8 8.0 0.00 0.00 0.00 84 1015.1
20260507062720 9 53 3.2 6.4 0.00 0.00 0.00 85 1015.1
20260507062219 8 53 3.2 6.4 0.00 0.00 0.00 86 1015.1
20260507061718 8 53 4.8 8.0 0.00 0.00 0.00 87 1015.1
20260507061218 8 53 4.8 8.0 0.00 0.00 0.00 87 1015.0
20260507060715 8 53 3.2 6.4 0.00 0.00 0.00 88 1015.0
20260507060215 7 53 4.8 8.0 0.00 0.00 0.00 88 1015.0
20260507055951 7 53 4.8 8.0 0.00 0.00 0.00 89 1014.9
20260507055214 7 53 4.8 8.0 0.00 0.00 0.00 90 1014.9
20260507054714 7 53 4.8 8.0 0.00 0.00 0.00 91 1014.9
20260507054214 6 53 4.8 8.0 0.00 0.00 0.00 92 1014.7
20260507053715 6 53 4.8 8.0 0.00 0.00 0.00 92 1014.7
20260507053214 6 53 4.8 8.0 0.00 0.00 0.00 93 1014.7
20260507052715 6 53 4.8 8.0 0.00 0.00 0.00 93 1014.6
20260507052216 5 53 3.2 6.4 0.00 0.00 0.00 94 1014.6
20260507051717 5 53 3.2 6.4 0.00 0.00 0.00 94 1014.6
20260507051212 5 53 3.2 6.4 0.00 0.00 0.00 93 1014.5
20260507050944 4 53 3.2 4.8 0.00 0.00 0.00 93 1014.5
20260507050208 4 53 3.2 4.8 0.00 0.00 0.00 93 1014.5
20260507045709 3 53 3.2 4.8 0.00 0.00 0.00 93 1014.5
20260507045206 3 53 3.2 4.8 0.00 0.00 0.00 93 1014.5
20260507044706 3 53 3.2 4.8 0.00 0.00 0.00 93 1014.5
20260507044207 3 53 3.2 4.8 0.00 0.00 0.00 93 1014.2
20260507043937 3 53 3.2 4.8 0.00 0.00 0.00 93 1014.2
20260507043203 3 53 3.2 4.8 0.00 0.00 0.00 93 1014.2
20260507042703 3 53 3.2 4.8 0.00 0.00 0.00 93 1014.0
20260507042443 3 53 3.2 4.8 0.00 0.00 0.00 92 1014.0
20260507041702 3 53 3.2 4.8 0.00 0.00 0.00 92 1014.0
20260507041434 3 53 3.2 4.8 0.00 0.00 0.00 92 1014.0
20260507040951 3 53 3.2 4.8 0.00 0.00 0.00 92 1014.0
20260507040436 3 53 3.2 4.8 0.00 0.00 0.00 92 1014.0
20260507035702 3 53 3.2 4.8 0.00 0.00 0.00 92 1014.0
20260507035202 3 53 3.2 4.8 0.00 0.00 0.00 92 1014.0
20260507034702 3 53 3.2 4.8 0.00 0.00 0.00 92 1014.0
20260507034202 3 53 3.2 4.8 0.00 0.00 0.00 92 1013.7
20260507033701 3 53 3.2 4.8 0.00 0.00 0.00 92 1013.7
20260507033202 3 53 3.2 4.8 0.00 0.00 0.00 92 1013.7
20260507032704 3 53 3.2 4.8 0.00 0.00 0.00 92 1013.6
20260507032439 3 53 3.2 4.8 0.00 0.00 0.00 92 1013.6
20260507031938 3 53 3.2 4.8 0.00 0.00 0.00 92 1013.6
20260507031201 3 53 3.2 4.8 0.00 0.00 0.00 92 1013.5
20260507030702 3 53 3.2 4.8 0.00 0.00 0.00 92 1013.5
20260507030435 4 53 3.2 6.4 0.00 0.00 0.00 91 1013.5
20260507025655 4 53 4.8 6.4 0.00 0.00 0.00 91 1013.5
20260507025145 4 53 4.8 6.4 0.00 0.00 0.00 91 1013.5
20260507024642 4 53 4.8 9.7 0.00 0.00 0.00 91 1013.5
20260507024142 4 53 4.8 9.7 0.00 0.00 0.00 91 1013.2
20260507023642 4 53 3.2 6.4 0.00 0.00 0.00 91 1013.2
20260507023413 5 53 3.2 6.4 0.00 0.00 0.00 91 1013.2
20260507022640 5 53 3.2 8.0 0.00 0.00 0.00 91 1013.2
20260507022410 5 53 4.8 8.0 0.00 0.00 0.00 91 1013.2
20260507021638 5 53 4.8 6.4 0.00 0.00 0.00 91 1013.2
20260507021136 5 53 4.8 6.4 0.00 0.00 0.00 91 1013.1
20260507020925 5 53 4.8 8.0 0.00 0.00 0.00 91 1013.1
20260507020135 5 53 6.4 9.7 0.00 0.00 0.00 91 1013.1
20260507015632 5 53 6.4 9.7 0.00 0.00 0.00 90 1013.0
20260507015130 5 53 6.4 8.0 0.00 0.00 0.00 90 1013.0
20260507014642 5 101 4.8 8.0 0.00 0.00 0.00 90 1013.0
20260507014138 5 108 3.2 4.8 0.00 0.00 0.00 90 1012.9
20260507013640 5 108 3.2 4.8 0.00 0.00 0.00 90 1012.9
20260507013135 5 108 1.6 4.8 0.00 0.00 0.00 90 1012.9
20260507012638 5 108 1.6 4.8 0.00 0.00 0.00 90 1012.8
20260507012130 5 108 3.2 4.8 0.00 0.00 0.00 90 1012.8
20260507011903 5 108 3.2 4.8 0.00 0.00 0.00 90 1012.8
20260507010628 5 108 4.8 6.4 0.00 0.00 0.00 89 1012.7
20260507010421 5 108 4.8 6.4 0.00 0.00 0.00 89 1012.7
20260507005628 5 108 4.8 6.4 0.00 0.00 0.00 89 1012.5
20260507005400 5 108 3.2 6.4 0.00 0.00 0.00 89 1012.5
20260507004628 5 108 4.8 6.4 0.00 0.00 0.00 89 1012.5
20260507004352 5 108 4.8 6.4 0.00 0.00 0.00 89 1012.5
20260507003627 5 108 4.8 6.4 0.00 0.00 0.00 89 1012.5
20260507003128 5 108 4.8 11.3 0.00 0.00 0.00 89 1012.5
20260507002629 5 108 4.8 11.3 0.00 0.00 0.00 89 1012.5
20260507002357 5 107 3.2 6.4 0.00 0.00 0.00 88 1012.5
20260507001622 5 107 3.2 4.8 0.00 0.00 0.00 88 1012.5
20260507001123 5 107 3.2 4.8 0.00 0.00 0.00 88 1012.5
20260507000622 5 107 3.2 4.8 0.00 0.00 0.00 92 1012.5
20260507000350 5 107 3.2 8.0 0.00 0.00 0.00 87 1012.5
20260506235622 5 107 4.8 8.0 0.00 0.00 0.00 87 1012.5
20260506235122 5 107 4.8 8.0 0.00 0.00 0.00 87 1012.5
20260506234621 5 107 6.4 8.0 0.00 0.00 0.00 86 1012.5
20260506234337 6 107 6.4 8.0 0.00 0.00 0.00 86 1012.5
20260506233614 6 107 6.4 8.0 0.00 0.00 0.00 86 1012.5
20260506233102 6 107 6.4 11.3 0.00 0.00 0.00 86 1012.5
20260506232604 6 107 6.4 11.3 0.00 0.00 0.00 86 1012.4
20260506231552 6 111 6.4 11.3 0.00 0.00 0.00 86 1012.4
20260506231052 6 108 6.4 11.3 0.00 0.00 0.00 86 1012.4
20260506230550 6 115 4.8 11.3 0.00 0.00 0.00 85 1012.4
20260506230049 6 110 4.8 11.3 0.00 0.00 0.00 85 1012.4
20260506225814 6 110 6.4 11.3 0.00 0.00 0.00 85 1012.4
20260506225050 5 105 4.8 9.7 0.00 0.00 0.00 84 1012.4
20260506224549 5 77 4.8 8.0 0.00 0.00 0.00 83 1012.4
20260506224315 5 54 4.8 4.8 0.00 0.00 0.00 82 1012.2
20260506223813 5 54 3.2 4.8 0.00 0.00 0.00 82 1012.2
20260506223048 5 53 3.2 4.8 0.00 0.00 0.00 82 1012.2
20260506222547 6 53 3.2 4.8 0.00 0.00 0.00 81 1012.1
20260506222045 6 53 3.2 4.8 0.00 0.00 0.00 81 1012.1
20260506221545 6 53 3.2 4.8 0.00 0.00 0.00 80 1012.1
20260506221044 6 53 4.8 6.4 0.00 0.00 0.00 80 1012.1
20260506220543 6 54 4.8 6.4 0.00 0.00 0.00 80 1012.1
20260506220319 6 53 3.2 4.8 0.00 0.00 0.00 80 1012.1
20260506215816 6 54 3.2 4.8 0.00 0.00 0.00 80 1012.0
20260506215046 6 53 3.2 4.8 0.00 0.00 0.00 79 1012.0
20260506214544 6 53 3.2 4.8 0.00 0.00 0.00 79 1012.0
20260506214311 6 54 3.2 4.8 0.00 0.00 0.00 79 1011.9
20260506213543 6 53 4.8 6.4 0.00 0.00 0.00 78 1011.9
20260506213040 6 53 4.8 6.4 0.00 0.00 0.00 78 1011.9
20260506212533 6 53 4.8 6.4 0.00 0.00 0.00 77 1011.6
20260506212037 6 53 4.8 4.8 0.00 0.00 0.00 77 1011.6
20260506211534 6 54 3.2 4.8 0.00 0.00 0.00 77 1011.6
20260506211032 7 54 3.2 4.8 0.00 0.00 0.00 76 1011.5
20260506210532 7 54 3.2 3.2 0.00 0.00 0.00 76 1011.5
20260506210046 7 54 3.2 3.2 0.00 0.00 0.00 75 1011.5
20260506205532 7 54 1.6 3.2 0.00 0.00 0.00 75 1011.5
20260506205033 7 54 1.6 3.2 0.00 0.00 0.00 75 1011.5
20260506204527 7 53 1.6 3.2 0.00 0.00 0.00 75 1011.5
20260506204029 7 54 1.6 3.2 0.00 0.00 0.00 74 1011.5
20260506203524 7 53 1.6 4.8 0.00 0.00 0.00 74 1011.5
20260506203305 7 53 1.6 4.8 0.00 0.00 0.00 73 1011.5
20260506202523 8 54 1.6 4.8 0.00 0.00 0.00 72 1011.4
20260506202022 8 54 1.6 3.2 0.00 0.00 0.00 72 1011.4
20260506201516 8 54 3.2 4.8 0.00 0.00 0.00 72 1011.4
20260506201010 8 54 3.2 4.8 0.00 0.00 0.00 73 1011.3
20260506200510 8 54 3.2 4.8 0.00 0.00 0.00 72 1011.3
20260506200244 8 53 1.6 4.8 0.00 0.00 0.00 71 1011.3
20260506195507 9 53 1.6 3.2 0.00 0.00 0.00 70 1011.0
20260506195011 9 54 1.6 4.8 0.00 0.00 0.00 69 1011.0
20260506194508 9 53 3.2 4.8 0.00 0.00 0.00 68 1011.0
20260506194013 10 53 3.2 6.4 0.00 0.00 0.00 68 1011.0
20260506193507 10 54 4.8 6.4 0.00 0.00 0.00 67 1011.0